Weather History for Kill Devil Hills, NC

Change the Weather History Date:

Thursday, January 23, 2014

  Actual Average (KMQI) Record (KMQI)
Temperature  
Mean Temperature 26 °F -  
Max Temperature 32 °F 46 °F 75 °F (1974)
Min Temperature 20 °F 34 °F 10 °F (1970)
Degree Days  
Heating Degree Days 39    
Moisture  
Dew Point 9 °F    
Average Humidity 45    
Maximum Humidity 64    
Minimum Humidity 30    
Precipitation  
Precipitation 0.00 in - - ()
Sea Level Pressure  
Sea Level Pressure 30.23 in    
Wind  
Wind Speed 3 mph (WNW)    
Max Wind Speed 10 mph    
Max Gust Speed 18 mph    
Visibility 10 miles    
Events      
Averages and records for this station are not official NWS values.
T = Trace of Precipitation, MM = Missing Value Source: NWS Daily Summary

Daily Weather History Graph

Daily Weather History Graph

Search for Another Location

Airport:

Trip Planner

Search our weather history database for the weather conditions in past years. The results will help you decide how hot, cold, wet, or windy it might be!

Date:

Astronomy

Jan. 23, 2014 Rise Set
Actual Time 7:09 AM EST 5:20 PM EST
Civil Twilight 6:41 AM EST 5:47 PM EST
Nautical Twilight 6:10 AM EST 6:18 PM EST
Astronomical Twilight 5:40 AM EST 6:49 PM EST
Moon No Moon Rise 10:57 AM EST
Length of Visible Light 11h 05m
Length of Day
10h 10m
Waning Gibbous, 55% of the Moon is Illuminated
Jan 23
Waning Gibbous
Jan 24
Last Quarter
Jan 30
New
Feb 6
First Quarter
Feb 14
Full

Hourly Weather History & Observations

Time (EST) Temp. Windchill Dew Point Humidity Pressure Visibility Wind Dir Wind Speed Gust Speed Precip Events Conditions
12:15 AM 21.4 °F - 4.5 °F 48% 30.12 in 10.0 mi Calm Calm - N/A   Clear
12:35 AM 21.6 °F 16.8 °F 3.9 °F 47% 30.13 in 10.0 mi NNW 3.5 mph - N/A   Clear
12:55 AM 21.6 °F - 3.9 °F 47% 30.13 in 10.0 mi Calm Calm - N/A   Clear
1:15 AM 21.7 °F - 4.1 °F 47% 30.12 in 10.0 mi Calm Calm - N/A   Clear
1:35 AM 21.6 °F - 4.1 °F 47% 30.11 in 10.0 mi Calm Calm - N/A   Clear
1:55 AM 21.6 °F 16.8 °F 3.7 °F 46% 30.12 in 10.0 mi NNW 3.5 mph - N/A   Clear
2:15 AM 21.4 °F - 4.1 °F 47% 30.12 in 10.0 mi Calm Calm - N/A   Clear
2:35 AM 21.2 °F - 4.6 °F 49% 30.14 in 10.0 mi Calm Calm - N/A   Clear
2:55 AM 20.7 °F - 5.0 °F 51% 30.14 in 10.0 mi Calm Calm - N/A   Clear
3:15 AM 21.6 °F - 6.3 °F 52% 30.13 in 10.0 mi Calm Calm - N/A   Clear
3:35 AM 21.0 °F - 6.1 °F 53% 30.13 in 10.0 mi Calm Calm - N/A   Clear
3:55 AM 20.5 °F - 5.9 °F 53% 30.14 in 10.0 mi Calm Calm - N/A   Clear
4:15 AM 21.6 °F - 7.0 °F 54% 30.15 in 10.0 mi Calm Calm - N/A   Clear
4:35 AM 22.6 °F - 11.1 °F 61% 30.15 in 10.0 mi Calm Calm - N/A   Clear
4:55 AM 23.2 °F 18.7 °F 12.6 °F 64% 30.16 in 10.0 mi West 3.5 mph - N/A   Clear
5:15 AM 24.1 °F 19.7 °F 12.2 °F 61% 30.17 in 10.0 mi WNW 3.5 mph - N/A   Clear
5:35 AM 24.6 °F 20.3 °F 12.4 °F 60% 30.17 in 10.0 mi NW 3.5 mph - N/A   Clear
5:55 AM 25.0 °F 20.7 °F 11.3 °F 56% 30.18 in 10.0 mi WNW 3.5 mph - N/A   Clear
6:15 AM 25.2 °F 19.5 °F 10.4 °F 54% 30.18 in 10.0 mi NW 4.6 mph - N/A   Clear
6:35 AM 25.5 °F 21.3 °F 11.3 °F 55% 30.20 in 10.0 mi West 3.5 mph - N/A   Clear
6:55 AM 25.7 °F 20.1 °F 10.8 °F 53% 30.20 in 10.0 mi West 4.6 mph - N/A   Clear
7:15 AM 25.9 °F 20.3 °F 8.8 °F 48% 30.21 in 10.0 mi WNW 4.6 mph - N/A   Clear
7:35 AM 26.1 °F 20.5 °F 9.0 °F 49% 30.21 in 10.0 mi WNW 4.6 mph - N/A   Clear
7:55 AM 26.8 °F - 9.0 °F 47% 30.22 in 10.0 mi Calm Calm - N/A   Clear
8:15 AM 28.0 °F 21.7 °F 8.8 °F 44% 30.22 in 10.0 mi NW 5.8 mph - N/A   Clear
8:35 AM 28.8 °F 23.7 °F 7.3 °F 40% 30.22 in 10.0 mi WNW 4.6 mph - N/A   Clear
8:55 AM 29.3 °F 22.3 °F 6.4 °F 38% 30.24 in 10.0 mi WNW 6.9 mph - N/A   Clear
9:15 AM 29.8 °F 23.9 °F 4.5 °F 34% 30.25 in 10.0 mi WNW 5.8 mph - N/A   Clear
9:35 AM 30.2 °F 23.4 °F 4.1 °F 33% 30.26 in 10.0 mi WNW 6.9 mph - N/A   Clear
9:55 AM 30.4 °F 22.2 °F 3.2 °F 32% 30.26 in 10.0 mi NW 9.2 mph - N/A   Clear
10:15 AM 30.9 °F 24.3 °F 2.3 °F 30% 30.27 in 10.0 mi WNW 6.9 mph - N/A   Clear
10:35 AM 31.3 °F 26.6 °F 3.2 °F 30% 30.28 in 10.0 mi WNW 4.6 mph - N/A   Clear
10:55 AM 31.5 °F 24.2 °F 3.9 °F 31% 30.27 in 10.0 mi NW 8.1 mph - N/A   Clear
11:15 AM 31.5 °F 24.2 °F 5.7 °F 34% 30.27 in 10.0 mi WNW 8.1 mph - N/A   Clear
11:35 AM 31.5 °F 24.9 °F 7.0 °F 36% 30.27 in 10.0 mi West 6.9 mph - N/A   Clear
11:55 AM 31.8 °F 26.2 °F 8.2 °F 37% 30.25 in 10.0 mi West 5.8 mph - N/A   Clear
12:15 PM 31.5 °F 24.9 °F 9.0 °F 39% 30.24 in 10.0 mi WNW 6.9 mph - N/A   Clear
12:35 PM 31.5 °F 26.8 °F 9.1 °F 39% 30.23 in 10.0 mi WNW 4.6 mph - N/A   Clear
12:55 PM 31.3 °F 25.6 °F 9.3 °F 40% 30.23 in 10.0 mi WNW 5.8 mph - N/A   Clear
1:15 PM 32.0 °F 26.4 °F 9.9 °F 40% 30.23 in 10.0 mi WNW 5.8 mph - N/A   Clear
1:35 PM 32.0 °F 25.6 °F 7.9 °F 36% 30.22 in 10.0 mi West 6.9 mph - N/A   Clear
1:55 PM 31.8 °F 24.6 °F 7.9 °F 37% 30.22 in 10.0 mi WNW 8.1 mph - N/A   Clear
2:15 PM 31.5 °F 24.9 °F 8.4 °F 38% 30.22 in 10.0 mi WNW 6.9 mph - N/A   Clear
2:35 PM 32.0 °F 24.8 °F 9.1 °F 38% 30.21 in 10.0 mi West 8.1 mph - N/A   Clear
2:55 PM 31.8 °F 26.2 °F 9.0 °F 38% 30.21 in 10.0 mi West 5.8 mph - N/A   Clear
3:15 PM 31.8 °F 24.6 °F 9.3 °F 39% 30.22 in 10.0 mi WNW 8.1 mph - N/A   Clear
3:35 PM 32.0 °F 25.6 °F 10.0 °F 40% 30.22 in 10.0 mi West 6.9 mph - N/A   Clear
3:55 PM 32.0 °F 28.7 °F 10.8 °F 41% 30.23 in 10.0 mi West 3.5 mph - N/A   Clear
4:15 PM 32.0 °F 28.7 °F 11.8 °F 43% 30.24 in 10.0 mi WNW 3.5 mph - N/A   Clear
4:35 PM 32.0 °F 27.5 °F 12.2 °F 44% 30.25 in 10.0 mi West 4.6 mph - N/A   Clear
4:55 PM 31.6 °F 28.3 °F 12.6 °F 45% 30.25 in 10.0 mi WNW 3.5 mph - N/A   Clear
5:15 PM 31.6 °F - 12.0 °F 44% 30.26 in 10.0 mi Calm Calm - N/A   Clear
5:35 PM 31.1 °F 27.7 °F 12.9 °F 47% 30.28 in 10.0 mi NW 3.5 mph - N/A   Clear
5:55 PM 31.3 °F - 13.1 °F 47% 30.28 in 10.0 mi Calm Calm - N/A   Clear
6:15 PM 31.1 °F - 12.9 °F 47% 30.28 in 10.0 mi Calm Calm - N/A   Clear
6:35 PM 31.1 °F - 13.5 °F 48% 30.29 in 10.0 mi Calm Calm - N/A   Clear
6:55 PM 31.5 °F - 13.8 °F 48% 30.30 in 10.0 mi Calm Calm - N/A   Clear
7:15 PM 31.6 °F - 14.0 °F 48% 30.30 in 10.0 mi Calm Calm - N/A   Clear
7:35 PM 31.6 °F - 14.4 °F 49% 30.30 in 10.0 mi Calm Calm - N/A   Clear
7:55 PM 31.8 °F - 14.4 °F 49% 30.31 in 10.0 mi Calm Calm - N/A   Clear
8:15 PM 32.0 °F 27.5 °F 14.5 °F 49% 30.31 in 10.0 mi NW 4.6 mph - N/A   Clear
8:35 PM 32.0 °F 27.5 °F 14.2 °F 48% 30.32 in 10.0 mi WNW 4.6 mph - N/A   Clear
8:55 PM 32.2 °F 27.7 °F 12.4 °F 44% 30.32 in 10.0 mi NNW 4.6 mph - N/A   Clear
9:35 PM 32.0 °F 24.8 °F 11.7 °F 43% 30.33 in 10.0 mi NW 8.1 mph - N/A   Clear
9:55 PM 31.6 °F 25.1 °F 11.1 °F 43% 30.33 in 10.0 mi NNW 6.9 mph - N/A   Clear
10:15 PM 31.1 °F 26.4 °F 11.1 °F 43% 30.34 in 10.0 mi NNW 4.6 mph - N/A   Clear
10:55 PM 30.9 °F 24.3 °F 10.0 °F 42% 30.35 in 10.0 mi NNW 6.9 mph - N/A   Clear
11:15 PM 30.4 °F 23.6 °F 10.0 °F 43% 30.34 in 10.0 mi NW 6.9 mph - N/A   Clear
11:35 PM 29.8 °F 24.9 °F 10.0 °F 44% 30.35 in 10.0 mi NNW 4.6 mph - N/A   Clear
11:55 PM 29.3 °F 20.2 °F 10.0 °F 45% 30.35 in 10.0 mi NW 10.4 mph 18.4 mph N/A   Clear